Location: Mt. Bigelow
(32.4165°N, 110.7345°W)
Time: 03:59:52
(UTC-07:00)

Tiangong 1 - Visible Passes

Search period start: 20 September 2017 00:00
Search period end: 30 September 2017 00:00
Orbit: 304 x 329 km, 42.8° (Epoch: 20 September)

Date Brightness Start Highest point End Pass type
(mag) Time Alt. Az. Time Alt. Az. Time Alt. Az.
20 Sep 3.6 05:20:22 10° N 05:20:49 10° N 05:21:16 10° NNE visible
21 Sep 3.4 05:33:20 10° NNW 05:34:52 14° NNE 05:36:23 10° NE visible
22 Sep 2.7 05:46:29 10° NW 05:48:41 23° NNE 05:50:56 10° E visible
23 Sep 3.7 04:27:03 12° NNE 04:27:03 12° NNE 04:27:57 10° NE visible
24 Sep 2.9 04:40:10 19° NNE 04:40:22 19° NNE 04:42:24 10° ENE visible
25 Sep 1.7 04:53:17 34° N 04:53:48 39° NNE 04:56:19 10° E visible
26 Sep 0.5 05:06:27 48° W 05:06:59 67° SSW 05:09:36 10° SE visible
27 Sep 2.1 05:19:39 21° SW 05:19:56 21° SW 05:22:03 10° SSE visible
